カタログに戻る

JACK-002

運用中アマチュア無線SSO
NORAD 68417·PAYLOAD·🇰🇷 South Korea

打ち上げ Mar 30, 2026 から Vandenberg Space Force Base

Loading…

次のパス (今後24時間)

TLE

最新Source: AMSAT

元期: Sep 13, 2026, 20:14 UTC

1 68417U 26067B   26256.84331902  .00005804  00000-0  26991-3 0  9995
2 68417  97.4667 214.4420 0001961  29.1087 331.0258 15.20345854 25419

AllMySatでJACK-002をリアルタイム追跡

Download on the App Store